Regional Weather Roundup
Issued by NWS

Home | Current Version | Previous Version | Graphics & Text | Print | Product List | Glossary Off
Versions: 1 2 3 4 5 6 7 8 9 10 11 12 13 14 15 16 17 18 19 20 21 22 23 24 25 26 27 28 29 30 31 32 33 34 35 36 37 38 39 40 41 42 43 44 45 46 47 48

000
ASUS43 KDMX 041407
RWRIA

WEATHER ROUNDUP FOR IOWA
NATIONAL WEATHER SERVICE DES MOINES IA
900 AM CDT SAT JUL 04 2015

NOTE: "FAIR" INDICATES FEW OR NO CLOUDS BELOW 12,000 FEET WITH NO
SIGNIFICANT WEATHER AND/OR OBSTRUCTIONS TO VISIBILITY.

* - THESE STATIONS ARE NOT NWS STATIONS...THUS NOT UNDER NWS
QUALITY CONTROL.  THEY ALSO DO NOT REPORT WEATHER SUCH
AS PRECIPITATION OR FOG.

IAZ001>003-012>014-020>022-031>034-043>046-041500-
   NORTHWEST IOWA

CITY           SKY/WX    TMP DP  RH WIND       PRES   REMARKS
CARROLL *      SUNNY     66  59  77 S3        30.01S
CHEROKEE *     SUNNY     64  63  94 CALM      30.00S
DENISON *      SUNNY     64  59  82 MISG      30.00R
LE MARS *      SUNNY     66  63  88 S5        30.00S
ORANGE CITY *  SUNNY     63  61  94 S3        29.99S FOG
SHELDON *      SUNNY     66  66 100 CALM      29.98S
SIOUX CITY     SUNNY     66  61  84 E6        29.98F
SPENCER        SUNNY     69  59  70 SW6       30.00R
STORM LAKE *   SUNNY     66  61  82 SW6       30.01S
$$

IAZ055>058-069>071-079>083-090>094-041500-
   SOUTHWEST IOWA

CITY           SKY/WX    TMP DP  RH WIND       PRES   REMARKS
ATLANTIC *     SUNNY     63  59  88 CALM      30.02S
AUDUBON *      SUNNY     66  61  82 CALM      30.02S
CLARINDA *     SUNNY     64  63  94 CALM      30.04R FOG
COUNCIL BLFS * SUNNY     68  59  73 S5        30.02S
CRESTON *      SUNNY     68  59  73 S5        30.03R
HARLAN  *      SUNNY     63  63 100 CALM      30.05R
LAMONI         SUNNY     69  61  75 S3        30.03R
RED OAK *      SUNNY     66  61  82 CALM      30.02R
SHENANDOAH *   SUNNY     66  61  82 CALM      30.03R
$$

IAZ047>049-059>061-072>074-084-041500-
   CENTRAL IOWA

CITY           SKY/WX    TMP DP  RH WIND       PRES   REMARKS
AMES           SUNNY     67  60  78 SW3       30.01S
ANKENY *       SUNNY     70  61  73 W5        30.01R
CHARITON *     SUNNY     68  61  77 CALM      30.03R
DES MOINES     MOSUNNY   69  59  70 CALM      30.01R
GRINNELL*      SUNNY     68  61  77 CALM      30.03R
KNOXVILLE *    SUNNY     66  59  77 CALM      30.01S
MARSHALLTOWN     N/A     63  58  83 CALM      30.01R HAZE
PELLA *        SUNNY     70  63  78 CALM      30.03R
PERRY *          N/A     66  59  77 CALM      30.02R
$$

IAZ004>006-015-016-023>025-035-036-041500-
   NORTH CENTRAL IOWA

CITY           SKY/WX    TMP DP  RH WIND       PRES   REMARKS
ALGONA *         N/A     68  59  73 SW7       30.00S
CLARION *      SUNNY     66  59  77 SW3       30.01R
ESTHERVILLE    SUNNY     68  59  73 SW6       29.99R
FORT DODGE *   SUNNY     66  57  72 S3        30.02R
MASON CITY     SUNNY     69  59  70 W7        30.01S
FOREST CITY *  SUNNY     66  59  77 CALM      30.00S
IOWA FALLS *     N/A     66  59  77 CALM      30.02S
$$

IAZ007>011-017>019-026>030-037>042-050>054-066-041500-
   NORTHEAST IOWA

CITY           SKY/WX    TMP DP  RH WIND       PRES   REMARKS
CEDAR RAPIDS   SUNNY     67  62  84 W5        30.01R
CHARLES CITY * SUNNY     66  63  88 SW3       30.00S
CLINTON *      SUNNY     66  57  72 W3        30.03S
DECORAH *        N/A    N/A N/A N/A MISG        N/A
DUBUQUE        SUNNY     70  61  73 W5        30.01S
MONTICELLO *   SUNNY     66  63  88 CALM      30.00S
OELWEIN *        N/A     68  61  77 W5        30.01S
WATERLOO       SUNNY     68  59  73 W3        29.99S
$$

IAZ064-065-067-068-078-041500-
   EAST CENTRAL IOWA

CITY           SKY/WX    TMP DP  RH WIND       PRES   REMARKS
DAVENPORT      SUNNY     68  59  73 CALM      30.02R
IOWA CITY      SUNNY     70  61  73 CALM      30.02R
MT. PLEASANT * SUNNY     72  57  60 CALM      30.03R
MUSCATINE *    SUNNY     68  59  73 CALM      30.02R
QUAD CITIES    SUNNY     69  62  78 CALM      30.01R HAZE
$$

IAZ062-063-075>077-085>089-095>099-041500-
   SOUTHEAST IOWA

CITY           SKY/WX    TMP DP  RH WIND       PRES   REMARKS
BURLINGTON     SUNNY     69  65  86 CALM      30.02R
FAIRFIELD *    SUNNY     68  59  73 CALM      30.03R
FORT MADISON * SUNNY     68  64  88 CALM      30.03R
KEOKUK *       SUNNY     72  64  78 CALM      30.02R
OSKALOOSA *      N/A     66  59  77 CALM      30.03R
CENTERVILLE *  SUNNY     68  61  77 CALM      30.05R
OTTUMWA        SUNNY     69  58  67 CALM      30.01R
WASHINGTON *   SUNNY     68  59  73 CALM      30.04R
$$

ABBREVIATIONS USED IN REMARKS
   TC - TEMPERATURES IN CELSIUS
  WCI - WIND CHILL INDEX
   HX - HEAT INDEX
  VSB - VISIBILITY
$$



USA.gov is the U.S. government's official web portal to all federal, state and local government web resources and services.